| time (UTC) | temp C | wind direction | speed KPH | gust KPH | rain 1hr cm | rain 24hr cm | rain mn cm | humidity % | barometer mb |
| 20260503233209 | 12 | 82 | 1.6 | 0.0 | 0.00 | 0.00 | 0.00 | 64 | 1015.5 |
| 20260503230209 | 12 | 76 | 3.2 | 0.0 | 0.00 | 0.00 | 0.00 | 62 | 1015.5 |
| 20260503223210 | 12 | 55 | 0.0 | 0.0 | 0.00 | 0.00 | 0.00 | 60 | 1015.5 |
| 20260503213210 | 14 | 340 | 4.8 | 0.0 | 0.00 | 0.00 | 0.00 | 54 | 1015.0 |
| 20260503210211 | 15 | 282 | 4.8 | 0.0 | 0.00 | 0.00 | 0.00 | 55 | 1015.0 |
| 20260503203209 | 15 | 338 | 14.5 | 0.0 | 0.00 | 0.00 | 0.00 | 53 | 1014.3 |
| 20260503200211 | 16 | 321 | 11.3 | 0.0 | 0.00 | 0.00 | 0.00 | 56 | 1014.0 |
| 20260503193210 | 16 | 275 | 1.6 | 0.0 | 0.00 | 0.00 | 0.00 | 57 | 1013.5 |
| 20260503190210 | 17 | 279 | 3.2 | 0.0 | 0.00 | 0.00 | 0.00 | 52 | 1013.1 |
| 20260503183209 | 18 | 159 | 3.2 | 0.0 | 0.00 | 0.00 | 0.00 | 54 | 1012.5 |
| 20260503180210 | 20 | 329 | 6.4 | 0.0 | 0.00 | 0.00 | 0.00 | 39 | 1012.2 |
| 20260503173209 | 21 | 234 | 8.0 | 0.0 | 0.00 | 0.00 | 0.00 | 36 | 1012.5 |
| 20260503170211 | 21 | 215 | 16.1 | 0.0 | 0.00 | 0.00 | 0.00 | 36 | 1012.2 |
| 20260503160211 | 23 | 298 | 9.7 | 0.0 | 0.00 | 0.00 | 0.00 | 35 | 1012.1 |
| 20260503150209 | 24 | 312 | 16.1 | 0.0 | 0.00 | 0.00 | 0.00 | 31 | 1012.4 |
| 20260503140210 | 23 | 215 | 14.5 | 0.0 | 0.00 | 0.00 | 0.00 | 38 | 1012.9 |
| 20260503130210 | 23 | 221 | 14.5 | 0.0 | 0.00 | 0.00 | 0.00 | 34 | 1013.5 |
| 20260503120210 | 22 | 292 | 16.1 | 0.0 | 0.00 | 0.00 | 0.00 | 38 | 1013.9 |
| 20260503110210 | 23 | 188 | 12.9 | 0.0 | 0.00 | 0.00 | 0.00 | 35 | 1014.4 |
| 20260503100212 | 21 | 328 | 9.7 | 0.0 | 0.00 | 0.00 | 0.00 | 36 | 1014.9 |
| 20260503090210 | 20 | 335 | 12.9 | 0.0 | 0.00 | 0.00 | 0.00 | 38 | 1015.7 |
| 20260503080212 | 17 | 250 | 4.8 | 0.0 | 0.00 | 0.00 | 0.00 | 59 | 1015.8 |
| 20260503070211 | 14 | 123 | 1.6 | 0.0 | 0.00 | 0.00 | 0.00 | 67 | 1016.0 |
| 20260503060211 | 8 | 123 | 1.6 | 0.0 | 0.00 | 0.00 | 0.00 | 77 | 1016.1 |
| 20260503053211 | 8 | 123 | 0.0 | 0.0 | 0.00 | 0.00 | 0.00 | 77 | 1016.1 |
| 20260503050212 | 8 | 123 | 0.0 | 0.0 | 0.00 | 0.00 | 0.00 | 77 | 1016.2 |
| 20260503043211 | 8 | 123 | 1.6 | 0.0 | 0.00 | 0.00 | 0.00 | 77 | 1016.2 |
| 20260503040210 | 8 | 123 | 0.0 | 0.0 | 0.00 | 0.00 | 0.00 | 77 | 1016.5 |
| 20260503033211 | 8 | 123 | 3.2 | 0.0 | 0.00 | 0.00 | 0.00 | 77 | 1016.5 |
| 20260503030211 | 8 | 123 | 1.6 | 0.0 | 0.00 | 0.00 | 0.00 | 77 | 1016.5 |
| 20260503023211 | 8 | 123 | 3.2 | 0.0 | 0.00 | 0.00 | 0.00 | 77 | 1016.9 |
| 20260503020211 | 8 | 123 | 3.2 | 0.0 | 0.00 | 0.00 | 0.00 | 77 | 1017.0 |
| 20260503013211 | 8 | 123 | 1.6 | 0.0 | 0.00 | 0.00 | 0.00 | 77 | 1017.2 |
| 20260503010211 | 8 | 123 | 0.0 | 0.0 | 0.00 | 0.00 | 0.00 | 77 | 1017.4 |
| 20260503003209 | 8 | 123 | 3.2 | 0.0 | 0.00 | 0.00 | 0.00 | 77 | 1017.5 |
| 20260503000211 | 8 | 123 | 0.0 | 0.0 | 0.00 | 0.00 | 0.00 | 77 | 1017.7 |